#timestamp,LO_Frequency,Hit,StdDev 
1650556815.0,286047001.2,N
1650556815.9,286047001.2,N
1650556835.8,286046998.4,N
1650556855.6,286046998.8,N
1650556875.4,286046998.6,N
1650556895.3,286047002.8,N
1650556915.1,286047001.3,N
1650556935.8,286047002.6,N
1650556955.7,286047000.8,N
1650556975.5,286046999.9,N
1650556995.4,286047001.1,N
1650557015.2,286046998.5,N
1650557035.0,286047001.2,N
1650557035.9,286047001.2,N
1650557055.8,286047000.4,N
1650557075.6,286047000.7,N
1650557095.4,286047000.3,N
1650557115.3,286047001.8,N
1650557135.1,286047000.1,N
1650557155.9,286047002.1,N
1650557175.7,286047000.4,N
1650557195.5,286046999.8,N
1650557215.4,286047002.4,N
1650557235.2,286047000.4,N
1650557255.0,286047000.9,N
1650557255.9,286047000.9,N
1650557275.8,286046998.1,N
1650557295.6,286046996.6,N
1650557315.5,286046997.7,N
1650557335.3,286046997.2,N
1650557355.1,286046996.1,N
1650557375.9,286046995.1,N
1650557395.7,286046997.2,N
1650557415.5,286046998.9,N
1650557435.4,286047000.0,N
1650557455.2,286047002.6,N
1650557475.1,286047002.2,N
1650557476.0,286047002.2,N
1650557495.8,286047004.0,N
1650557515.6,286047003.6,N
1650557535.5,286047005.8,N
1650557555.3,286047005.7,N
1650557575.1,286047004.2,N
1650557595.9,286047001.3,N
1650557615.7,286047003.6,N
1650557635.6,286047002.9,N
1650557655.4,286047005.4,N
1650557675.2,286047005.5,N
1650557695.1,286047007.5,N
1650557696.0,286047007.5,N
1650557715.8,286047007.0,N
1650557735.6,286047005.1,N
1650557755.5,286047004.9,N
1650557775.3,286047004.5,N
1650557795.2,286047006.8,N
1650557815.9,286047006.9,N
1650557835.7,286047005.0,N
1650557855.6,286047006.1,N
1650557875.4,286047007.4,N
1650557895.2,286047004.9,N
1650557915.1,286047007.5,N
1650557916.0,286047007.5,N
1650557935.8,286047006.6,N
1650557955.7,286047006.8,N
1650557975.5,286047006.7,Y
1650557995.3,286046999.8,P
1650558015.2,286047001.0,N
1650558035.0,286047000.1,N
1650558035.9,286047000.1,N
1650558055.8,286047000.4,N
1650558075.6,286047001.0,N
1650558095.4,286046999.7,N
1650558115.3,286047000.4,N
1650558135.1,286047002.6,N
1650558155.8,286047004.2,N
1650558175.7,286047004.3,N
1650558195.5,286047004.2,N
1650558215.4,286047003.2,N
1650558235.2,286047005.3,N
1650558255.0,286047004.0,N
1650558255.9,286047004.0,N
1650558275.8,286047001.6,N
1650558295.6,286047003.8,N
1650558315.4,286047003.2,N
1650558335.3,286047001.8,N
1650558355.1,286047004.0,N
1650558375.9,286047004.4,N
1650558395.7,286047003.2,N
1650558415.5,286047003.7,N
1650558435.4,286047004.3,N
1650558455.2,286047004.4,N
1650558475.0,286047001.4,N
1650558475.9,286047001.4,N
1650558495.8,286047001.9,N
1650558515.6,286047002.3,N
1650558535.4,286047001.4,N
1650558555.3,286047001.4,N
1650558575.1,286047003.6,N
1650558595.9,286047003.5,N
1650558615.7,286047001.6,N
1650558635.5,286047004.2,N
1650558655.4,286047004.3,Y
1650558675.2,286047000.9,P
1650558695.1,286047000.3,N
1650558696.0,286047000.3,N
1650558715.8,286047000.6,N
1650558735.6,286047000.2,N
1650558755.5,286047002.4,N
1650558775.3,286047000.8,N
1650558795.1,286047000.6,N
1650558815.9,286047000.9,N
1650558835.7,286047002.5,N
1650558855.6,286047003.8,Y
1650558875.4,286046999.7,P
1650558895.2,286047000.1,N
1650558915.1,286047002.8,P
1650558916.0,286047002.8,N
1650558935.8,286046999.8,N
1650558955.6,286047002.5,N
1650558975.5,286047001.8,N
1650558995.3,286047003.1,N
1650559015.2,286047002.0,N
1650559035.9,286047001.4,N
1650559055.7,286047000.3,N
1650559075.6,286046999.0,N
1650559095.4,286046999.4,N
1650559115.2,286046998.2,N
1650559135.1,286046998.1,N
1650559136.0,286046998.1,N
1650559155.8,286046999.1,N
1650559175.7,286047000.1,N
1650559195.5,286046999.7,N
1650559215.3,286046999.9,N
1650559235.2,286047000.1,N
1650559255.0,286047000.2,N
1650559255.9,286047000.2,N
1650559275.7,286046998.3,N
1650559295.6,286046999.4,N
1650559315.4,286046997.0,N
1650559335.3,286046997.4,N
1650559355.1,286046996.7,N
1650559356.0,286046996.7,N
1650559375.8,286046996.7,N
1650559395.7,286046999.6,N
1650559415.5,286046997.0,N
1650559435.3,286046996.6,N
1650559455.2,286046999.1,N
1650559475.0,286046998.1,N
1650559475.9,286046998.1,N
1650559495.8,286046998.6,N
1650559515.6,286047001.9,N
1650559535.4,286046999.9,N
1650559555.3,286046999.9,N
1650559575.1,286047003.6,N
1650559595.8,286047003.7,N
1650559615.7,286047001.0,N
1650559635.5,286047002.2,N
1650559655.4,286047000.0,N
1650559675.2,286046998.8,N
1650559695.0,286046998.8,N
1650559695.9,286046998.8,N
1650559715.8,286047000.9,N
1650559735.6,286047001.1,N
1650559755.4,286046999.8,N
1650559775.3,286047003.5,N
1650559795.1,286047003.5,N
1650559815.9,286047002.2,N
1650559835.7,286047002.1,N
1650559855.5,286047000.0,N
1650559875.4,286047000.6,N
1650559895.2,286047000.3,N
1650559915.1,286047002.7,N
1650559916.0,286047002.7,N
1650559935.8,286047001.6,N
1650559955.6,286047007.6,Y
1650559975.5,286047005.5,P
1650559995.3,286047003.3,N
1650560015.1,286047006.0,N
1650560035.9,286047004.4,N
1650560055.7,286047003.0,N
1650560075.6,286047003.5,N
1650560095.4,286047003.9,N
1650560115.2,286047002.6,N
1650560135.1,286047002.7,N
1650560136.0,286047002.7,N
1650560155.8,286047000.3,N
1650560175.7,286046999.9,N
1650560195.5,286047000.3,N
1650560215.3,286047001.0,N
1650560235.2,286046999.4,N
1650560255.9,286046997.3,N
1650560275.7,286046997.3,N
1650560295.6,286046999.4,N
1650560315.4,286046995.4,N
1650560335.2,286046995.7,N
1650560355.1,286046997.0,N
1650560356.0,286046997.0,N
1650560375.8,286046997.1,N
1650560395.7,286046995.3,N
